| time (UTC) | temp C | wind direction | speed KPH | gust KPH | rain 1hr cm | rain 24hr cm | rain mn cm | humidity % | barometer mb |
| 20260509053100 | 10 | 250 | 3.2 | 4.8 | 0.00 | 0.00 | 0.00 | 51 | 1004.3 |
| 20260509051600 | 10 | 250 | 3.2 | 4.8 | 0.00 | 0.00 | 0.00 | 50 | 1004.4 |
| 20260509050106 | 10 | 250 | 1.6 | 3.2 | 0.00 | 0.00 | 0.00 | 49 | 1004.5 |
| 20260509044555 | 10 | 250 | 1.6 | 4.8 | 0.00 | 0.00 | 0.00 | 48 | 1004.5 |
| 20260509043101 | 10 | 250 | 3.2 | 4.8 | 0.00 | 0.00 | 0.00 | 47 | 1004.6 |
| 20260509041553 | 11 | 250 | 3.2 | 6.4 | 0.00 | 0.00 | 0.00 | 46 | 1004.8 |
| 20260509040049 | 11 | 250 | 3.2 | 8.0 | 0.00 | 0.00 | 0.00 | 46 | 1005.1 |
| 20260509034553 | 11 | 257 | 3.2 | 4.8 | 0.00 | 0.00 | 0.00 | 46 | 1005.1 |
| 20260509033053 | 11 | 259 | 3.2 | 6.4 | 0.00 | 0.00 | 0.00 | 46 | 1005.2 |
| 20260509031547 | 11 | 258 | 3.2 | 4.8 | 0.00 | 0.00 | 0.00 | 46 | 1005.4 |
| 20260509030021 | 11 | 259 | 1.6 | 6.4 | 0.00 | 0.00 | 0.00 | 46 | 1005.4 |
| 20260509024516 | 11 | 259 | 3.2 | 4.8 | 0.00 | 0.00 | 0.00 | 46 | 1005.5 |
| 20260509023014 | 12 | 259 | 1.6 | 4.8 | 0.00 | 0.00 | 0.00 | 46 | 1005.6 |
| 20260509021515 | 12 | 258 | 3.2 | 6.4 | 0.00 | 0.00 | 0.00 | 42 | 1005.6 |
| 20260509020013 | 12 | 259 | 3.2 | 4.8 | 0.00 | 0.00 | 0.00 | 44 | 1005.5 |
| 20260509014515 | 13 | 258 | 1.6 | 3.2 | 0.00 | 0.00 | 0.00 | 39 | 1005.5 |
| 20260509013012 | 13 | 259 | 1.6 | 4.8 | 0.00 | 0.00 | 0.00 | 37 | 1005.4 |
| 20260509011510 | 13 | 259 | 3.2 | 6.4 | 0.00 | 0.00 | 0.00 | 38 | 1005.2 |
| 20260509010009 | 14 | 259 | 1.6 | 4.8 | 0.00 | 0.00 | 0.00 | 36 | 1005.2 |
| 20260509004508 | 15 | 259 | 1.6 | 8.0 | 0.00 | 0.00 | 0.00 | 35 | 1005.2 |
| 20260509003008 | 15 | 259 | 4.8 | 8.0 | 0.00 | 0.00 | 0.00 | 32 | 1005.1 |
| 20260509001548 | 16 | 257 | 4.8 | 8.0 | 0.00 | 0.00 | 0.00 | 31 | 1005.0 |
| 20260509000036 | 16 | 259 | 4.8 | 11.3 | 0.00 | 0.00 | 0.00 | 31 | 1004.9 |
| 20260508234506 | 16 | 262 | 6.4 | 16.1 | 0.00 | 0.00 | 0.00 | 29 | 1005.0 |
| 20260508233004 | 16 | 259 | 4.8 | 12.9 | 0.00 | 0.00 | 0.00 | 30 | 1005.0 |
| 20260508231535 | 17 | 260 | 9.7 | 17.7 | 0.00 | 0.00 | 0.00 | 29 | 1005.0 |
| 20260508230032 | 17 | 247 | 14.5 | 22.5 | 0.00 | 0.00 | 0.00 | 29 | 1005.0 |
| 20260508224535 | 17 | 246 | 11.3 | 20.9 | 0.00 | 0.00 | 0.00 | 28 | 1005.1 |
| 20260508223042 | 16 | 260 | 4.8 | 14.5 | 0.00 | 0.00 | 0.00 | 28 | 1005.1 |
| 20260508221527 | 17 | 242 | 11.3 | 25.7 | 0.00 | 0.00 | 0.00 | 28 | 1005.2 |
| 20260508220030 | 17 | 250 | 8.0 | 20.9 | 0.00 | 0.00 | 0.00 | 29 | 1005.2 |
| 20260508214547 | 17 | 269 | 9.7 | 19.3 | 0.00 | 0.00 | 0.00 | 26 | 1005.4 |
| 20260508213022 | 17 | 256 | 8.0 | 19.3 | 0.00 | 0.00 | 0.00 | 28 | 1005.4 |
| 20260508211522 | 17 | 258 | 6.4 | 22.5 | 0.00 | 0.00 | 0.00 | 27 | 1005.4 |
| 20260508210020 | 17 | 245 | 4.8 | 16.1 | 0.00 | 0.00 | 0.00 | 26 | 1005.7 |
| 20260508204549 | 16 | 247 | 11.3 | 20.9 | 0.00 | 0.00 | 0.00 | 28 | 1005.7 |
| 20260508203046 | 17 | 251 | 11.3 | 20.9 | 0.00 | 0.00 | 0.00 | 27 | 1006.0 |
| 20260508201514 | 17 | 249 | 6.4 | 24.1 | 0.00 | 0.00 | 0.00 | 26 | 1006.3 |
| 20260508200019 | 17 | 248 | 9.7 | 20.9 | 0.00 | 0.00 | 0.00 | 28 | 1006.4 |
| 20260508194506 | 16 | 239 | 17.7 | 25.7 | 0.00 | 0.00 | 0.00 | 29 | 1006.6 |
| 20260508193004 | 16 | 245 | 12.9 | 22.5 | 0.00 | 0.00 | 0.00 | 29 | 1006.9 |
| 20260508191603 | 15 | 263 | 12.9 | 24.1 | 0.00 | 0.00 | 0.00 | 30 | 1007.0 |
| 20260508190110 | 16 | 262 | 9.7 | 19.3 | 0.00 | 0.00 | 0.00 | 30 | 1007.2 |
| 20260508184558 | 16 | 305 | 8.0 | 22.5 | 0.00 | 0.00 | 0.00 | 31 | 1007.5 |
| 20260508183110 | 15 | 243 | 11.3 | 20.9 | 0.00 | 0.00 | 0.00 | 31 | 1007.7 |
| 20260508181552 | 15 | 260 | 11.3 | 20.9 | 0.00 | 0.00 | 0.00 | 32 | 1008.0 |
| 20260508180059 | 15 | 249 | 17.7 | 30.6 | 0.00 | 0.00 | 0.00 | 32 | 1008.2 |
| 20260508174600 | 15 | 243 | 9.7 | 22.5 | 0.00 | 0.00 | 0.00 | 32 | 1008.4 |
| 20260508173041 | 15 | 235 | 8.0 | 22.5 | 0.00 | 0.00 | 0.00 | 33 | 1008.7 |
| 20260508171538 | 15 | 257 | 4.8 | 16.1 | 0.00 | 0.00 | 0.00 | 34 | 1008.9 |
| 20260508170038 | 14 | 249 | 9.7 | 20.9 | 0.00 | 0.00 | 0.00 | 35 | 1009.0 |
| 20260508164538 | 14 | 256 | 9.7 | 25.7 | 0.00 | 0.00 | 0.00 | 34 | 1009.3 |
| 20260508163032 | 13 | 283 | 6.4 | 19.3 | 0.00 | 0.00 | 0.00 | 33 | 1009.5 |
| 20260508161527 | 13 | 243 | 9.7 | 24.1 | 0.00 | 0.00 | 0.00 | 39 | 1009.5 |
| 20260508160024 | 13 | 260 | 9.7 | 17.7 | 0.00 | 0.00 | 0.00 | 38 | 1009.6 |
| 20260508154519 | 13 | 238 | 8.0 | 22.5 | 0.00 | 0.00 | 0.00 | 41 | 1009.8 |
| 20260508153029 | 12 | 270 | 4.8 | 22.5 | 0.00 | 0.00 | 0.00 | 41 | 1010.0 |
| 20260508151516 | 12 | 260 | 11.3 | 19.3 | 0.00 | 0.00 | 0.00 | 43 | 1010.0 |
| 20260508150012 | 12 | 237 | 6.4 | 17.7 | 0.00 | 0.00 | 0.00 | 46 | 1010.1 |
| 20260508144509 | 11 | 255 | 9.7 | 19.3 | 0.00 | 0.00 | 0.00 | 48 | 1010.3 |
| 20260508143008 | 11 | 245 | 8.0 | 17.7 | 0.00 | 0.00 | 0.00 | 50 | 1010.3 |
| 20260508141509 | 11 | 246 | 12.9 | 19.3 | 0.00 | 0.00 | 0.00 | 52 | 1010.5 |
| 20260508140059 | 10 | 236 | 9.7 | 19.3 | 0.00 | 0.00 | 0.00 | 53 | 1010.5 |
| 20260508140001 | 10 | 232 | 9.7 | 19.3 | 0.00 | 0.00 | 0.00 | 54 | 1010.5 |
| 20260508134527 | 10 | 266 | 9.7 | 17.7 | 0.00 | 0.00 | 0.00 | 55 | 1010.6 |
| 20260508133021 | 10 | 255 | 9.7 | 17.7 | 0.00 | 0.00 | 0.00 | 57 | 1010.7 |
| 20260508131514 | 10 | 233 | 4.8 | 9.7 | 0.00 | 0.00 | 0.00 | 58 | 1010.9 |
| 20260508130024 | 9 | 262 | 3.2 | 9.7 | 0.00 | 0.00 | 0.00 | 61 | 1010.8 |
| 20260508124505 | 8 | 271 | 3.2 | 6.4 | 0.00 | 0.00 | 0.00 | 64 | 1010.8 |
| 20260508123001 | 8 | 276 | 3.2 | 9.7 | 0.00 | 0.00 | 0.00 | 68 | 1010.9 |
| 20260508121608 | 7 | 278 | 4.8 | 9.7 | 0.00 | 0.00 | 0.00 | 69 | 1010.9 |
| 20260508120106 | 7 | 285 | 3.2 | 8.0 | 0.00 | 0.00 | 0.00 | 69 | 1010.7 |
| 20260508114556 | 7 | 286 | 0.0 | 8.0 | 0.00 | 0.00 | 0.00 | 70 | 1010.4 |
| 20260508113043 | 7 | 287 | 1.6 | 6.4 | 0.00 | 0.00 | 0.00 | 69 | 1010.6 |
| 20260508111541 | 7 | 288 | 0.0 | 3.2 | 0.00 | 0.00 | 0.00 | 72 | 1010.4 |
| 20260508110034 | 5 | 288 | 0.0 | 3.2 | 0.00 | 0.00 | 0.00 | 77 | 1010.5 |
| 20260508104530 | -17 | 0.0 | 0.0 | 0.00 | 0.00 | 0.00 | 1010.5 | ||
| 20260508103032 | -17 | 0.0 | 0.0 | 0.00 | 0.00 | 0.00 | 1010.5 | ||
| 20260508101519 | -17 | 0.0 | 0.0 | 0.00 | 0.00 | 0.00 | 1010.7 | ||
| 20260508100012 | -17 | 0.0 | 0.0 | 0.00 | 0.00 | 0.00 | 1010.6 | ||
| 20260508094508 | -17 | 0.0 | 0.0 | 0.00 | 0.00 | 0.00 | 1010.6 | ||
| 20260508093007 | 3 | 290 | 1.6 | 4.8 | 0.00 | 0.00 | 0.00 | 79 | 1010.7 |
| 20260508091509 | 4 | 288 | 1.6 | 3.2 | 0.00 | 0.00 | 0.00 | 78 | 1010.7 |
| 20260508090116 | 4 | 288 | 1.6 | 4.8 | 0.00 | 0.00 | 0.00 | 78 | 1010.8 |
| 20260508084600 | 4 | 290 | 3.2 | 4.8 | 0.00 | 0.00 | 0.00 | 77 | 1010.7 |
| 20260508083103 | 4 | 288 | 1.6 | 4.8 | 0.00 | 0.00 | 0.00 | 77 | 1010.8 |
| 20260508081601 | 4 | 288 | 1.6 | 4.8 | 0.00 | 0.00 | 0.00 | 76 | 1010.8 |
| 20260508080052 | 5 | 288 | 3.2 | 4.8 | 0.00 | 0.00 | 0.00 | 75 | 1010.7 |
| 20260508074551 | 5 | 290 | 3.2 | 4.8 | 0.00 | 0.00 | 0.00 | 73 | 1010.8 |
| 20260508073048 | 5 | 288 | 1.6 | 4.8 | 0.00 | 0.00 | 0.00 | 73 | 1010.9 |
| 20260508071548 | 5 | 288 | 1.6 | 3.2 | 0.00 | 0.00 | 0.00 | 73 | 1010.9 |
| 20260508070045 | 5 | 290 | 3.2 | 4.8 | 0.00 | 0.00 | 0.00 | 73 | 1011.0 |
| 20260508064545 | 5 | 288 | 3.2 | 4.8 | 0.00 | 0.00 | 0.00 | 72 | 1011.1 |
| 20260508063057 | 6 | 288 | 1.6 | 3.2 | 0.00 | 0.00 | 0.00 | 70 | 1011.1 |
| 20260508061546 | 6 | 288 | 1.6 | 3.2 | 0.00 | 0.00 | 0.00 | 68 | 1011.1 |
| 20260508060041 | 6 | 288 | 1.6 | 4.8 | 0.00 | 0.00 | 0.00 | 68 | 1011.1 |
| 20260508054540 | 6 | 288 | 1.6 | 3.2 | 0.00 | 0.00 | 0.00 | 69 | 1010.9 |